This is the latest recevied weather packets stored in our database for station/object OK1FET-5. If no packets are shown the sender has not sent any weather packets the latest 10 day(s).
| Time | Temp. | Humidity | Pressure | Rain* | Wind** | Luminosity | Snow |
|---|---|---|---|---|---|---|---|
| 1777528631 | 9.44° C | 31% | 1032.9 hPa | - | - | - | - |
| 1777528337 | 9.44° C | 31% | 1032.9 hPa | - | - | - | - |
| 1777527161 | 8.33° C | 31% | 1032.9 hPa | - | - | - | - |
| 1777526867 | 7.78° C | 31% | 1032.9 hPa | - | - | - | - |
| 1777526279 | 7.22° C | 32% | 1032.9 hPa | - | - | - | - |
| 1777525985 | 6.67° C | 32% | 1032.9 hPa | - | - | - | - |
| 1777525691 | 6.67° C | 32% | 1032.8 hPa | - | - | - | - |
| 1777525397 | 6.67° C | 32% | 1032.9 hPa | - | - | - | - |
| 1777525103 | 6.67° C | 32% | 1032.9 hPa | - | - | - | - |
| 1777524809 | 7.22° C | 30% | 1032.9 hPa | - | - | - | - |
| 1777524515 | 7.78° C | 29% | 1032.8 hPa | - | - | - | - |
| 1777524221 | 7.22° C | 29% | 1032.8 hPa | - | - | - | - |
| 1777523634 | 6.11° C | 30% | 1032.7 hPa | - | - | - | - |
| 1777523046 | 5° C | 31% | 1032.6 hPa | - | - | - | - |
| 1777522459 | 2.78° C | 33% | 1032.6 hPa | - | - | - | - |
| 1777522165 | 2.22° C | 34% | 1032.6 hPa | - | - | - | - |
| 1777521872 | 1.11° C | 35% | 1032.6 hPa | - | - | - | - |
| 1777521578 | 0.56° C | 35% | 1032.5 hPa | - | - | - | - |
| 1777520991 | -0.56° C | 37% | 1032.5 hPa | - | - | - | - |
| 1777520111 | -0.56° C | 35% | 1032.4 hPa | - | - | - | - |
| 1777519817 | -0.56° C | 37% | 1032.3 hPa | - | - | - | - |
| 1777519524 | -1.11° C | 36% | 1032.3 hPa | - | - | - | - |
| 1777519231 | -1.11° C | 36% | 1032.2 hPa | - | - | - | - |
| 1777518937 | -1.11° C | 36% | 1032.2 hPa | - | - | - | - |
| 1777518644 | -1.11° C | 40% | 1032.2 hPa | - | - | - | - |
* Rain since midnight (hover to see other rain measurements)
** Current wind speed in m/s (hover to see current wind gust speed)